Location: Newark
(51.0500°N, 12.4500°E)
Time: 00:56:15
(UTC+00:00)

Tiros 1 - Pass Details

Date: 26 February 2020
Orbit: 630 x 664 km, 48.4° (Epoch: 01 April)

Event Time Altitude Azimuth Distance (km) Brightness Sun altitude
Rises 04:24:37 0° 278° (W) 2,924 - -16.1°
Reaches altitude 10° 04:27:02 10° 271° (W) 2,012 - -15.7°
Exits shadow 04:29:20 26° 254° (WSW) 1,241 8.0 -15.4°
Maximum altitude 04:31:23 42° 201° (SSW) 905 7.7 -15.1°
Drops below altitude 10° 04:35:43 10° 131° (SE) 2,004 10.3 -14.4°
Sets 04:38:07 0° 124° (SE) 2,911 11.4 -14.0°
